Regional Weather Roundup
Issued by NWS

Home | Current Version | Previous Version | Text Only | Print | Product List | Glossary On
Versions: 1 2 3 4 5 6 7 8 9 10 11 12 13 14 15 16 17 18 19 20 21 22 23 24 25 26 27 28 29 30 31 32 33 34 35 36 37 38 39 40 41 42 43 44 45 46 47 48 49 50
796
ASUS42 KKEY 162110
RWRKEY

FLORIDA REGIONAL WEATHER ROUNDUP FOR THE FLORIDA KEYS
NATIONAL WEATHER SERVICE KEY WEST FLORIDA
400 PM EST MON JAN 16 2017

...SOUTH FLORIDA AND THE KEYS...

CITY           SKY/WX    TMP DP  RH WIND       PRES   REMARKS
FORT MYERS     MOSUNNY   80  63  55 E12G17    30.18S
SW REGIONAL AP PTSUNNY   78  62  57 E14       30.18F
NAPLES         PTSUNNY   76  63  64 NW6       30.18S
MIAMI          PTSUNNY   79  61  53 E14       30.20R
WEST KENDALL   MOSUNNY   77  65  66 E15G21    30.20R
HOMESTEAD      CLOUDY    76  67  74 E10       30.19R
MARATHON       PTSUNNY   80  66  62 E10       30.16R
BOCA CHICA NAS MOSUNNY   79  65  62 E15G24    30.15S
KEY WEST INTL  MOSUNNY   79  66  64 E15       30.16R

...INTERNATIONAL WEATHER...

CITY           SKY/WX    TMP DP  RH WIND       PRES   REMARKS
NASSAU BAHAMAS MOSUNNY   77  63  61 E12       30.19R
CANCUN MEXICO  MOSUNNY   82  68  61 SE10      30.02F
COZUMEL MEXICO MOSUNNY   81  68  65 E13       29.99F

ADJACENT COASTAL WATERS...

STATION/POSITION TIME  SKY/WX   TEMP    WIND        PRES    WAVE
                                AIR SEA DIR/SP/G            HT/PER
                 (UTC)          (F)     (DEG/KT/KT) (MB)    (FT/S)
PULASKI SHOAL LI 2100            74      80/ 13/ 14 1020.9R
SAND KEY         2050            76     130/ 17/ 20 1021.3R
LONG KEY         2000            74 71   80/ 11/ 13 1021.6F
MOLASSES REEF    2000            75 77  100/ 16/ 18 1021.9F
FOWEY ROCKS      2000            75 76   80/ 19/ 20 1022.7S

$$




USA.gov is the U.S. government's official web portal to all federal, state and local government web resources and services.